Stündliche Wetter Abaeté

Heute, 8 März, Montag

Zeit Temperatur Niederschläge Wind Luftdruck Luftfeuchtigkeit
00:00 +22°C° 0.8 mm 1 m/S 706 mmHg 95%
01:00 +22°C° 0.1 mm 1 m/S 706 mmHg 94%
02:00 +20°C° 0.1 mm 0 m/S 706 mmHg 94%
03:00 +20°C° 0 mm 0 m/S 706 mmHg 94%
04:00 +20°C° 0 mm 0 m/S 706 mmHg 94%
05:00 +22°C° 0 mm 1 m/S 705 mmHg 94%
06:00 +22°C° 0 mm 1 m/S 705 mmHg 94%
07:00 +23°C° 0 mm 1 m/S 706 mmHg 92%
08:00 +23°C° 0 mm 1 m/S 706 mmHg 90%
09:00 +25°C° 0 mm 2 m/S 707 mmHg 88%
10:00 +25°C° 1 mm 2 m/S 707 mmHg 86%
11:00 +26°C° 1 mm 1 m/S 707 mmHg 84%
12:00 +27°C° 1 mm 1 m/S 706 mmHg 82%
13:00 +27°C° 0.6 mm 1 m/S 706 mmHg 80%
14:00 +27°C° 0.6 mm 1 m/S 705 mmHg 78%
15:00 +27°C° 0.6 mm 2 m/S 705 mmHg 77%
16:00 +27°C° 0.2 mm 1 m/S 704 mmHg 79%
17:00 +26°C° 0.2 mm 1 m/S 704 mmHg 82%
18:00 +23°C° 0.2 mm 0 m/S 704 mmHg 84%
19:00 +23°C° 0.5 mm 0 m/S 704 mmHg 86%
20:00 +22°C° 0.5 mm 0 m/S 705 mmHg 87%
21:00 +21°C° 0.5 mm 0 m/S 705 mmHg 89%
22:00 +23°C° 0.8 mm 1 m/S 705 mmHg 90%
23:00 +23°C° 0.8 mm 1 m/S 705 mmHg 91%

Morgen, 9 März, Dienstag

Zeit Temperatur Niederschläge Wind Luftdruck Luftfeuchtigkeit
00:00 +23°C° 0.8 mm 2 m/S 705 mmHg 92%
01:00 +22°C° 0.9 mm 1 m/S 705 mmHg 94%
02:00 +22°C° 0.9 mm 1 m/S 704 mmHg 95%
03:00 +22°C° 0.9 mm 1 m/S 704 mmHg 96%
04:00 +22°C° 0.2 mm 1 m/S 704 mmHg 96%
05:00 +22°C° 0.2 mm 1 m/S 704 mmHg 96%
06:00 +22°C° 0.2 mm 1 m/S 704 mmHg 96%
07:00 +22°C° 0 mm 1 m/S 705 mmHg 94%
08:00 +23°C° 0 mm 1 m/S 705 mmHg 91%
09:00 +24°C° 0 mm 1 m/S 705 mmHg 89%
10:00 +25°C° 0.3 mm 1 m/S 705 mmHg 84%
11:00 +27°C° 0.3 mm 1 m/S 705 mmHg 79%
12:00 +28°C° 0.3 mm 1 m/S 705 mmHg 74%
13:00 +28°C° 0.5 mm 1 m/S 704 mmHg 73%
14:00 +28°C° 0.5 mm 1 m/S 704 mmHg 73%
15:00 +28°C° 0.5 mm 1 m/S 703 mmHg 72%
16:00 +27°C° 1.1 mm 1 m/S 703 mmHg 77%
17:00 +26°C° 1.1 mm 1 m/S 703 mmHg 83%
18:00 +25°C° 1.1 mm 1 m/S 703 mmHg 88%
19:00 +24°C° 0 mm 1 m/S 703 mmHg 89%
20:00 +24°C° 0 mm 1 m/S 703 mmHg 90%
21:00 +23°C° 0 mm 1 m/S 704 mmHg 91%
22:00 +23°C° 0.4 mm 1 m/S 704 mmHg 91%
23:00 +23°C° 0.4 mm 2 m/S 704 mmHg 92%

übermorgen, 10 März, Mittwoch

Zeit Temperatur Niederschläge Wind Luftdruck Luftfeuchtigkeit
00:00 +23°C° 0.4 mm 2 m/S 703 mmHg 93%
01:00 +21°C° 0 mm 2 m/S 703 mmHg 94%
02:00 +21°C° 0 mm 2 m/S 703 mmHg 94%
03:00 +21°C° 0 mm 2 m/S 703 mmHg 95%
04:00 +21°C° 0.3 mm 2 m/S 703 mmHg 95%
05:00 +21°C° 0.3 mm 2 m/S 703 mmHg 94%
06:00 +21°C° 0.3 mm 2 m/S 703 mmHg 94%
07:00 +23°C° 0.3 mm 2 m/S 704 mmHg 92%
08:00 +24°C° 0.3 mm 3 m/S 704 mmHg 90%
09:00 +24°C° 0.3 mm 3 m/S 705 mmHg 88%
10:00 +25°C° 1.4 mm 3 m/S 704 mmHg 85%
11:00 +26°C° 1.4 mm 4 m/S 704 mmHg 82%
12:00 +27°C° 1.4 mm 4 m/S 704 mmHg 79%
13:00 +27°C° 1.1 mm 4 m/S 704 mmHg 79%
14:00 +27°C° 1.1 mm 4 m/S 703 mmHg 79%
15:00 +27°C° 1.1 mm 3 m/S 703 mmHg 79%
16:00 +26°C° 0.9 mm 3 m/S 703 mmHg 83%
17:00 +25°C° 0.9 mm 2 m/S 703 mmHg 87%
18:00 +25°C° 0.9 mm 2 m/S 703 mmHg 90%
19:00 +24°C° 0.6 mm 2 m/S 703 mmHg 91%
20:00 +24°C° 0.6 mm 2 m/S 703 mmHg 91%
21:00 +23°C° 0.6 mm 2 m/S 704 mmHg 92%
22:00 +23°C° 0 mm 1 m/S 704 mmHg 93%
23:00 +23°C° 0 mm 1 m/S 704 mmHg 93%

11 März, Donnerstag

Zeit Temperatur Niederschläge Wind Luftdruck Luftfeuchtigkeit
00:00 +23°C° 0 mm 1 m/S 704 mmHg 93%
01:00 +22°C° 0.1 mm 1 m/S 704 mmHg 94%
02:00 +21°C° 0.1 mm 2 m/S 704 mmHg 95%
03:00 +21°C° 0.1 mm 2 m/S 704 mmHg 96%
04:00 +21°C° 0.1 mm 2 m/S 704 mmHg 96%
05:00 +21°C° 0.1 mm 2 m/S 704 mmHg 96%
06:00 +21°C° 0.1 mm 2 m/S 704 mmHg 96%
07:00 +23°C° 0.1 mm 2 m/S 705 mmHg 93%
08:00 +24°C° 0.1 mm 2 m/S 706 mmHg 90%
09:00 +25°C° 0.1 mm 3 m/S 706 mmHg 86%
10:00 +26°C° 0.8 mm 3 m/S 706 mmHg 82%
11:00 +27°C° 0.8 mm 3 m/S 706 mmHg 78%
12:00 +28°C° 0.8 mm 2 m/S 706 mmHg 74%
13:00 +28°C° 1.1 mm 2 m/S 706 mmHg 74%
14:00 +28°C° 1.1 mm 2 m/S 705 mmHg 74%
15:00 +28°C° 1.1 mm 1 m/S 705 mmHg 75%
16:00 +27°C° 1.1 mm 1 m/S 704 mmHg 79%
17:00 +26°C° 1.1 mm 1 m/S 704 mmHg 83%
18:00 +23°C° 1.1 mm 0 m/S 704 mmHg 88%
19:00 +23°C° 0.3 mm 0 m/S 704 mmHg 88%
20:00 +22°C° 0.3 mm 0 m/S 705 mmHg 89%
21:00 +22°C° 0.3 mm 0 m/S 705 mmHg 89%
22:00 +21°C° 0.8 mm 0 m/S 705 mmHg 91%
23:00 +21°C° 0.8 mm 0 m/S 705 mmHg 92%

12 März, Freitag

Zeit Temperatur Niederschläge Wind Luftdruck Luftfeuchtigkeit
00:00 +20°C° 0.8 mm 0 m/S 705 mmHg 93%
01:00 +20°C° 0.2 mm 0 m/S 705 mmHg 94%
02:00 +20°C° 0.2 mm 0 m/S 705 mmHg 94%
03:00 +20°C° 0.2 mm 0 m/S 704 mmHg 95%
04:00 +20°C° 0.3 mm 0 m/S 704 mmHg 95%
05:00 +19°C° 0.3 mm 0 m/S 705 mmHg 95%
06:00 +19°C° 0.3 mm 0 m/S 705 mmHg 96%
07:00 +21°C° 0 mm 0 m/S 705 mmHg 93%
08:00 +22°C° 0 mm 0 m/S 706 mmHg 89%
09:00 +26°C° 0 mm 1 m/S 706 mmHg 86%
10:00 +27°C° 0.1 mm 1 m/S 706 mmHg 81%
11:00 +28°C° 0.1 mm 1 m/S 706 mmHg 75%
12:00 +30°C° 0.1 mm 1 m/S 706 mmHg 70%
13:00 +30°C° 0.5 mm 1 m/S 706 mmHg 70%
14:00 +30°C° 0.5 mm 1 m/S 705 mmHg 69%
15:00 +30°C° 0.5 mm 1 m/S 704 mmHg 68%
16:00 +29°C° 0.9 mm 1 m/S 704 mmHg 74%
17:00 +27°C° 0.9 mm 1 m/S 704 mmHg 80%
18:00 +26°C° 0.9 mm 1 m/S 704 mmHg 86%
19:00 +25°C° 0.5 mm 1 m/S 704 mmHg 88%
20:00 +25°C° 0.5 mm 1 m/S 704 mmHg 89%
21:00 +24°C° 0.5 mm 1 m/S 705 mmHg 90%
22:00 +23°C° 0.5 mm 1 m/S 705 mmHg 91%
23:00 +23°C° 0.5 mm 1 m/S 705 mmHg 93%

13 März, Samstag

Zeit Temperatur Niederschläge Wind Luftdruck Luftfeuchtigkeit
00:00 +23°C° 0.5 mm 1 m/S 705 mmHg 95%
01:00 +22°C° 0.3 mm 1 m/S 705 mmHg 95%
02:00 +22°C° 0.3 mm 1 m/S 705 mmHg 96%
03:00 +22°C° 0.3 mm 1 m/S 704 mmHg 96%
04:00 +21°C° 0 mm 1 m/S 705 mmHg 97%
05:00 +21°C° 0 mm 1 m/S 705 mmHg 97%
06:00 +21°C° 0 mm 1 m/S 705 mmHg 97%
07:00 +22°C° 0 mm 1 m/S 705 mmHg 93%
08:00 +24°C° 0 mm 1 m/S 706 mmHg 90%
09:00 +25°C° 0 mm 1 m/S 707 mmHg 86%
10:00 +26°C° 0.4 mm 1 m/S 706 mmHg 82%
11:00 +27°C° 0.4 mm 1 m/S 706 mmHg 79%
12:00 +28°C° 0.4 mm 1 m/S 706 mmHg 75%
13:00 +29°C° 0.7 mm 1 m/S 706 mmHg 75%
14:00 +29°C° 0.7 mm 1 m/S 705 mmHg 75%
15:00 +29°C° 0.7 mm 1 m/S 705 mmHg 75%
16:00 +28°C° 1.5 mm 1 m/S 704 mmHg 79%
17:00 +27°C° 1.5 mm 1 m/S 704 mmHg 84%
18:00 +25°C° 1.5 mm 1 m/S 704 mmHg 89%
19:00 +25°C° 1.4 mm 1 m/S 704 mmHg 89%
20:00 +24°C° 1.4 mm 1 m/S 705 mmHg 90%
21:00 +24°C° 1.4 mm 1 m/S 705 mmHg 90%
22:00 +24°C° 1.3 mm 2 m/S 706 mmHg 91%
23:00 +23°C° 1.3 mm 2 m/S 706 mmHg 92%
Mehr zeigen

Wir brauchen deine Erlaubnis

Meteoprog und unser Service Anbieter werden persönliche Daten aufbewahren, so wie Cookies, Geräte Bezeichnung oder ähnliche Technologien von deinem Gerät und Prozess, so wie Persönliche Daten Inhalte und Werbungen, genauso wie social Media und den Verkehr zu analysieren.

  • Aufbewahrung und/oder Zugang zu deiner Geräte Informationen.

    Cookies, Geräte Bezeichnung oder andere Informationen, können aufbewahrt oder Zugang zu deinem Gerät erhalten, für den Grund, der oben angegeben wird.

  • Personalisierte Werbung und Inhalte, Messungen, Einblick in das Publikum und Produkt Entwicklung.

    Werbungen und Inhalte können personalisiert werden, basierend auf ein Profil. Mehr Daten können besser personalisierte Werbungen und Inhalte hinzufügen. Werbung und Inhalte können gezeigt und gemessen werden. Einblicke über das Publikum, welche die Werbung gesehen haben und den Inhalt, können abgeleitet werden. So wie Daten können genutzt werden, um es zu verbessern oder die Benutzer Erfahrung zu verbessern das System und die Software.

Wenn du “Ich stimme zu” klickst, erlaubst du uns, die Cookies zu benutzen die Geräte Bezeichnung, den Web oder ähnliche Technologien zu benutzen. Deine Settings, können in deinem Gerät bei deinem Browser geändert werden.

Für den bestimmten Zweck, berechtigten Interessen beruhen darauf, mehr als auf den Inhalt. Du kannst mehr darüber in unseren Privaten und Cookie Politik lesen.